Other Surface Observations
Issued by NWS

Home | Current Version | Previous Version | Text Only | Print | Product List | Glossary On
Versions: 1 2 3 4 5 6 7 8 9 10 11 12 13 14 15 16 17 18 19 20 21 22 23 24 25 26 27 28 29 30 31 32 33 34 35 36 37 38 39 40 41 42 43 44 45 46 47 48 49 50
000
SXUS52 KTAE 051418
OSOTAE
OSOTAE
North Florida/South Alabama/Southwest Georgia Weather Roundup
National Weather Service Tallahassee Florida
1000 AM EDT SAT SEP 05 2015

Note: "fair" indicates few or no clouds below 12,000 feet with no
significant weather and/or obstructions to visibility.

!FLZ017-115-028-034-025-051500
...North Florida...

CITY           SKY/WX    TMP DP  RH WIND       PRES   REMARKS
TALLAHASSEE    MOSUNNY   83  73  72 E6        30.04R
APALACHICOLA   CLOUDY    80  77  90 N3        30.02S
PERRY          SUNNY     81  74  79 E3        30.05R
CROSS CITY       N/A     80  75  84 CALM      30.04R
JACKSONVILLE   MOSUNNY   84  75  74 NE7       30.03R HX  92
$$

!FLZ112-006-005-002-011-051500
...Florida Panhandle...

CITY           SKY/WX    TMP DP  RH WIND       PRES   REMARKS
MARIANNA       SUNNY     80  77  90 NE8       30.03R
BONIFAY        NOT AVBL
PANAMA CITY NW FAIR      83  75  77 CALM      30.02R HX  90
TYNDALL AFB    PTSUNNY   84  76  78 NW3       30.02R HX  93
TYND DRONE APT FAIR      84  77  78 NW3       30.02S HX  94
DE FUNIAK SPR  FAIR      82  74  74 N7        30.04S
EGLIN AFB      MOSUNNY   85  74  69 N7        30.02S HX  92
DESTIN         MOSUNNY   84  76  76 VRB5      30.02S HX  93
HURLBURT       MOSUNNY   84  74  72 N8        30.01R HX  91
CRESTVIEW      SUNNY     84  75  74 VRB5      30.05R HX  92
PENSACOLA      SUNNY     84  74  71 N6        30.03R HX  91
$$

!ALZ063-066-051500
...South Alabama...

CITY           SKY/WX    TMP DP  RH WIND       PRES   REMARKS
DOTHAN         MOSUNNY   78  73  84 E8        30.09R
OZARK CAIRNS   MOSUNNY   78  74  87 NE10      30.04R
FT RUCKER HELI MOSUNNY   81  73  76 E7        30.04R
RUCKER HELI 3  FAIR      79  73  83 E9G17     30.06R
RUCKER HELI 2  NOT AVBL
FLORALA APT    MOSUNNY   82  73  74 N3        30.06R
ANDALUSIA      MOSUNNY   84  74  71 CALM      30.04R HX  91
TROY           SUNNY     81  73  76 NE6       30.07R
EUFALA         FAIR      82  73  74 NE3       30.06R
MOBILE         MOSUNNY   83  75  77 N6        30.04S HX  90
$$

!GAZ120>161-051500
...Southwest and South Central Georgia...

CITY           SKY/WX    TMP DP  RH WIND       PRES   REMARKS
THOMASVILLE    CLOUDY    75  73  94 S3        30.07S
BAINBRIDGE     SUNNY     81  73  78 E7        30.05S
MOODY AFB      MOSUNNY   78  72  80 NE6       30.05R
VALDOSTA       MOSUNNY   77  74  90 NE3       30.06R
MOULTRIE       MOSUNNY   77  72  83 E5        30.08R
BLAKELY        MOSUNNY   81  75  83 E5        30.06R
ALBANY         MOSUNNY   81  71  71 E9        30.08R
TIFTON         CLOUDY    78  72  82 NE8       30.08R
FITZGERALD     FAIR      80  73  81 E8        30.10S
CORDELE        FAIR      82  73  73 E6        30.09R
AMERICUS       FAIR      77  73  88 E7        30.10S
HOMERVILLE     FAIR      81  77  89 E5        30.07R
$$

!GMZ750-755-770-775-051500
...Coastal and Buoy Obs...

STATION/POSITION TIME  TEMP    WIND        PRES    VSBY  WAVE
                       AIR SEA DIR/SP/G                  HT/PER
                 (UTC) (F)     (DEG/KT/KT) (MB)    (MI)  (FT/S)
KEATON BEACH     1400   80      CALM  /  1 1017.3R
CEDAR KEY        1400   82     140/  3/  4 1017.3R
C TOWER          1400   81      20/  2/  3 1016.6R
APALACHICOLA BUO 1350   82 85  160/  2/  6 1017.2R         1/ 6
PANAMA CITY BUOY 1350   83 85   30/  6/  8 1017.0R         1/ 4
MOBILE BUOY      1350   82 85  330/ 10/ 12 1017.1R         1/ 3
ORANGE BCH AL BU 1350   83 86  340/  6/  8 1016.2R         1/ 3
$$



USA.gov is the U.S. government's official web portal to all federal, state and local government web resources and services.